CZ-2C DEB

Satellite information

Favourite Embed

Satellite Type and Status

DEBRISIN ORBIT

Key statistics

Satellite CZ-2C DEB at a glance.

Uptime

5152

Days in orbit

Revolutions

≈ 14.4

Per day

Orbit

SSO

Sun Synchronous Orbit

Inclination

98.3

Latest

Satellite identification and parameters

Extended collection of information and parameters for CZ-2C DEB.

Object identification

Identified? True

Debris? True

Object name: CZ-2C DEB

International designator: 2011-039D

Object number (NORAD): 37768

Object ID (CCSDS): 37768

Country: PEOPLES REPUBLIC OF CHINA (PRC)

Current information (Y/N): Y

RCS size: SMALL

Orbital parameters

Period: 99.828 minutes

Inclination: 98.3276 deg

SMA: 7128.435 km

Apoapsis: 840.624 km

Periapsis: 659.975 km

RAAN: 197.1965 deg

Eccentricy: 0.01267101

Argument of periapsis: 22.8565 deg

Mean anomaly: 35.2739 deg

Mean motion: 14.4248563 rev/day

Mean motion (dot): 0.00008652 rev/day2

B* drag term: 0.0023811929 1/REarth

Two-line elements (TLE)

Creation date: Sept. 4, 2025, 4:29 a.m.

Reference frame: TEME

Reference center: EARTH

Epoch: Sept. 3, 2025, 7:49 p.m. UTC

TLE line 0: 0 CZ-2C DEB

TLE line 1: 1 37768U 11039D 25246.82592528 .00008652 00000-0 23812-2 0 9994

TLE line 2: 2 37768 98.3276 197.1965 0126710 22.8565 35.2739 14.42485630735956

Live tracking on map

Real-time ground track for satellite CZ-2C DEB.

In-orbit conjunctions

A list of the most updated potential collisions computed for object CZ-2C DEB.

Target Orbit TCA Probability of collision Miss distance Type
SINAH 1 SSO 2024-11-14 12:32:12 0.0005501928 507.0 (m) PAYLOAD

Associated space launch

CZ-2C DEB was lifted into orbit during the mission ‘Long March 2C | Shijian 10-02’, on board a Long March 2 space rocket.

The launch took place on July 29, 2011, 7:42 a.m. from Launch Area 4 (SLS-2 / 603).

For more information about the launch, click the button.

Launch to space Long March 2C | Shijian 10-02
Long March 2C | Shijian 10-02

Agency: N/A

Status: Launch Successful

Launch date: July 29, 2011, 7:42 a.m. UTC

Rocket: Long March 2

Launch pad: Launch Area 4 (SLS-2 / 603)

Location: Jiuquan Satellite Launch Center, People's Republic of China

...

Latest news about this satellite

There are no fresh news available about this satellite. Check back as we update our databases every day.


Newsletter sign-up

Weekly statistics, charts and insights to help you stay on top of the space industry.